This demonstration page uses our WeatherBlox Daily Observations layout. Learn more.

Left ArrowRight Arrow

38.20091, -84.87328

Hourly Observations for January 31, 2023

Temp ( °F °C ) Dew Point ( °F °C ) Humidity (%) Winds ( mph kmh ) Pressure ( in mb ) Visibility ( mi km ) Precip ( " mm )
12:40 am 00:40 Cloudy with Freezing Rain 32 0 29 -1.7 88 88 N 7 11 30.31 1026 5 8 0.05 1.27
12:48 am 00:48 Cloudy with Light Freezing Rain 32 0 30 -1 93 93 NNE 6 9 30.30 1026 6 10 0.05 1.27
12:53 am 00:53 Cloudy with Light Freezing Rain 32 0 29 -1.7 88 88 N 6 9 30.28 1026 5 8 0.06 1.52
1:24 am 01:24 Cloudy with Light Freezing Rain 32 0 29 -1.7 88 88 NE 6 9 30.30 1026 4 6 0.01 0.25
1:38 am 01:38 Cloudy with Light Wintry Mix 31 -0.6 28 -2.2 89 89 NNE 6 9 30.29 1026 9 14 0.01 0.25
1:46 am 01:46 Cloudy 32 0 29 -1.7 88 88 NNW 6 9 30.31 1026 10 16 0.01 0.25
1:53 am 01:53 Cloudy with Light Wintry Mix 32 0 29 -1.7 88 88 NNW 6 9 30.29 1026 7 11 0.02 0.51
2:01 am 02:01 Cloudy with Freezing Rain 32 0 29 -1.7 88 88 NNW 9 15 30.32 1027 4 6 0.01 0.25
2:30 am 02:30 Cloudy with Light Freezing Rain 31 -0.6 28 -2.2 89 89 N 7 11 30.32 1027 6 10 0.06 1.52
2:46 am 02:46 Cloudy with Light Freezing Rain 31 -0.6 29 -1.7 92 92 NNE 6 9 30.31 1026 6 10 0.07 1.78
2:53 am 02:53 Cloudy with Light Snow 31 -0.6 28 -2.2 89 89 N 9 15 30.29 1026 3 5 0.08 2.03
3:00 am 03:00 Cloudy with Light Snow 31 -0.6 28 -2.2 89 89 NNE 7 11 30.31 1026 3 4 0.01 0.13
3:08 am 03:08 Cloudy with Mist and Fog 30 -1.1 27 -2.8 88 88 N 9 15 30.31 1027 5 8 0.01 0.13
3:40 am 03:40 Cloudy 30 -1.1 26 -3.3 85 85 N 7 11 30.31 1027 10 16 0.01 0.13
3:51 am 03:51 Cloudy 30 -1 27 -3 86 86 N 10 17 30.33 1027 10 16 0.01 0.13
3:53 am 03:53 Cloudy with Light Wintry Mix 30 -1.1 26 -3.3 85 85 N 8 13 30.30 1026 9 14 0.01 0.13
4:07 am 04:07 Cloudy with Light Freezing Rain 30 -1.1 26 -3.3 85 85 N 8 13 30.33 1027 6 10 0.01 0.25
4:39 am 04:39 Cloudy with Light Freezing Rain 29 -1.7 26 -3.3 89 89 N 12 19 30.36 1028 6 10 0.02 0.51
4:53 am 04:53 Cloudy with Light Freezing Rain 29 -1.7 25 -3.9 85 85 NNE 9 15 30.31 1026 5 8 0.03 0.76
5:27 am 05:27 Cloudy with Mist and Fog 28 -2.2 25 -3.9 88 88 N 9 15 30.33 1027 6 10 0.01 0.13
5:43 am 05:43 Cloudy 28 -2.2 25 -3.9 88 88 N 10 17 30.34 1027 8 13 0.01 0.13
5:53 am 05:53 Cloudy with Light Freezing Rain 28 -2.2 25 -3.9 88 88 N 8 13 30.31 1027 6 10 0.01 0.13
5:59 am 05:59 Cloudy with Mist and Fog 28 -2.2 25 -3.9 88 88 N 9 15 30.34 1027 6 10 0.01 0.13
6:19 am 06:19 Cloudy with Mist and Fog 28 -2.2 24 -4.4 85 85 N 7 11 30.34 1027 5 8 0.01 0.13
6:26 am 06:26 Cloudy with Light Freezing Rain 28 -2.2 25 -3.9 88 88 N 8 13 30.35 1028 4 6 0.01 0.25
6:42 am 06:42 Cloudy with Mist and Fog 28 -2.2 25 -3.9 88 88 N 6 9 30.35 1028 5 8 0.01 0.25
6:53 am 06:53 Cloudy with Mist and Fog 28 -2.2 25 -3.9 88 88 NNW 7 11 30.33 1027 5 8 0.01 0.25
7:02 am 07:02 Cloudy with Mist and Fog 27 -2.8 25 -3.9 92 92 N 7 11 30.36 1028 5 8 0.00 0.00
7:13 am 07:13 Cloudy with Mist and Fog 27 -2.8 25 -3.9 92 92 N 7 11 30.36 1028 6 10 0.00 0.00
7:53 am 07:53 Cloudy with Mist and Fog 27 -2.8 25 -3.9 92 92 N 7 11 30.34 1027 6 10 0.00 0.00
8:14 am 08:14 Cloudy 27 -2.8 24 -4.4 89 89 N 7 11 30.38 1029 10 16 0.00 0.00
8:30 am 08:30 Cloudy 27 -2.8 24 -4.4 89 89 N 6 9 30.38 1029 10 16 0.00 0.00
8:53 am 08:53 Cloudy 27 -2.8 23 -5 85 85 NNE 8 13 30.34 1028 10 16 0.00 0.00
9:14 am 09:14 Cloudy 28 -2.2 24 -4.4 85 85 NNE 7 11 30.38 1029 10 16 0.00 0.00
9:53 am 09:53 Cloudy 28 -2.2 24 -4.4 85 85 NNE 6 9 30.35 1028 8 13 0.00 0.00
10:53 am 10:53 Cloudy with Mist and Fog 27 -2.8 24 -4.4 89 89 N 7 11 30.36 1028 5 8 0.00 0.00
11:53 am 11:53 Cloudy with Mist and Fog 28 -2.2 25 -3.9 88 88 NNE 5 7 30.34 1027 5 8 0.00 0.00
12:53 pm 12:53 Cloudy with Mist and Fog 28 -2.2 25 -3.9 88 88 N 7 11 30.32 1027 6 10 0.00 0.00
1:53 pm 13:53 Cloudy with Mist and Fog 28 -2.2 25 -3.9 88 88 N 6 9 30.27 1025 6 10 0.00 0.00
2:53 pm 14:53 Cloudy with Mist and Fog 28 -2.2 25 -3.9 88 88 NNW 6 9 30.24 1024 5 8 0.00 0.00
3:53 pm 15:53 Cloudy with Mist and Fog 28 -2.2 25 -3.9 88 88 N 8 13 30.27 1025 4 6 0.00 0.00
4:41 pm 16:41 Cloudy with Mist and Fog 28 -2.2 25 -3.9 88 88 VRB 5 7 30.30 1026 3 4 0.00 0.00
4:53 pm 16:53 Cloudy with Mist and Fog 28 -2.2 25 -3.9 88 88 NNE 6 9 30.26 1025 3 5 0.00 0.00
5:53 pm 17:53 Cloudy with Mist and Fog 28 -2.2 24 -4.4 85 85 N 7 11 30.28 1026 6 10 0.00 0.00
6:19 pm 18:19 Cloudy 28 -2.2 24 -4.4 85 85 N 5 7 30.32 1027 8 13 0.00 0.00
6:53 pm 18:53 Cloudy 28 -2.2 24 -4.4 85 85 N 5 7 30.28 1026 7 11 0.00 0.00
7:53 pm 19:53 Cloudy 28 -2.2 24 -4.4 85 85 NNW 5 7 30.32 1027 9 14 0.00 0.00
8:18 pm 20:18 Cloudy 28 -2.2 24 -4.4 85 85 NNW 6 9 30.35 1028 10 16 0.00 0.00
8:53 pm 20:53 Cloudy 28 -2.2 22 -5.6 77 77 N 6 9 30.32 1027 10 16 0.00 0.00
9:53 pm 21:53 Cloudy 27 -2.8 22 -5.6 81 81 N 5 7 30.32 1027 9 14 0.01 0.13
10:53 pm 22:53 Cloudy 27 -2.8 22 -5.6 81 81 N 3 6 30.32 1027 10 16 0.01 0.13
11:53 pm 23:53 Cloudy 27 -2.8 20 -6.7 74 74 NNW 3 6 30.34 1027 10 16 0.00 0.00

Powered by AerisWeather